Time,TemperatureF,DewpointF,PressureIn,WindDirection,WindDirectionDegrees,WindSpeedMPH,WindSpeedGustMPH,Humidity,HourlyPrecipIn,Conditions,Clouds,dailyrainin,SoftwareType,DateUTC
2013-06-24 00:00:00,73.0,-33.3,30.13,South,180,0.0,6.0,1,0.00,,,0.00,Weather View 32 v70,2013-06-24 04:00:00,
2013-06-24 00:01:00,73.0,-33.3,30.13,South,180,0.0,6.0,1,0.00,,,0.00,Weather View 32 v70,2013-06-24 04:01:00,
2013-06-24 00:06:00,73.0,-33.3,30.13,SSE,157,0.0,6.0,1,0.00,,,0.00,Weather View 32 v70,2013-06-24 04:06:00,
2013-06-24 00:11:00,73.0,-33.3,30.13,South,180,2.0,6.0,1,0.00,,,0.00,Weather View 32 v70,2013-06-24 04:11:00,
2013-06-24 00:16:00,73.0,-33.3,30.13,WNW,292,0.0,6.0,1,0.00,,,0.00,Weather View 32 v70,2013-06-24 04:16:00,
2013-06-24 00:21:00,73.0,-33.3,30.13,ESE,112,1.0,6.0,1,0.00,,,0.00,Weather View 32 v70,2013-06-24 04:21:00,
2013-06-24 00:26:00,72.0,-33.9,30.13,SSW,202,0.0,6.0,1,0.00,,,0.00,Weather View 32 v70,2013-06-24 04:26:00,
2013-06-24 00:31:00,72.0,-33.9,30.13,WSW,247,0.0,5.0,1,0.00,,,0.00,Weather View 32 v70,2013-06-24 04:31:00,
2013-06-24 00:36:00,71.0,-34.5,30.12,SSE,157,0.0,5.0,1,0.00,,,0.00,Weather View 32 v70,2013-06-24 04:36:00,
2013-06-24 00:41:00,71.0,-34.5,30.12,SE,135,1.0,7.0,1,0.00,,,0.00,Weather View 32 v70,2013-06-24 04:41:00,
2013-06-24 00:46:00,71.0,-34.5,30.12,ESE,112,0.0,7.0,1,0.00,,,0.00,Weather View 32 v70,2013-06-24 04:46:00,
2013-06-24 00:51:00,71.0,-34.5,30.12,ESE,112,0.0,7.0,1,0.00,,,0.00,Weather View 32 v70,2013-06-24 04:51:00,
2013-06-24 00:56:00,71.0,-34.5,30.12,SSE,157,0.0,7.0,1,0.00,,,0.00,Weather View 32 v70,2013-06-24 04:56:00,
2013-06-24 01:01:00,71.0,-34.5,30.12,SSE,157,0.0,7.0,1,0.00,,,0.00,Weather View 32 v70,2013-06-24 05:01:00,
2013-06-24 01:06:00,71.0,-34.5,30.12,SSE,157,0.0,7.0,1,0.00,,,0.00,Weather View 32 v70,2013-06-24 05:06:00,
2013-06-24 01:11:00,71.0,-34.5,30.12,SSE,157,0.0,7.0,1,0.00,,,0.00,Weather View 32 v70,2013-06-24 05:11:00,
2013-06-24 01:16:00,71.0,-34.5,30.12,SE,135,0.0,7.0,1,0.00,,,0.00,Weather View 32 v70,2013-06-24 05:16:00,
2013-06-24 01:21:00,71.0,-34.5,30.12,SE,135,0.0,7.0,1,0.00,,,0.00,Weather View 32 v70,2013-06-24 05:21:00,
2013-06-24 01:26:00,71.0,-34.5,30.11,SE,135,0.0,7.0,1,0.00,,,0.00,Weather View 32 v70,2013-06-24 05:26:00,
2013-06-24 01:31:00,71.0,-34.5,30.11,SE,135,0.0,7.0,1,0.00,,,0.00,Weather View 32 v70,2013-06-24 05:31:00,
2013-06-24 01:36:00,71.0,-34.5,30.11,SE,135,0.0,7.0,1,0.00,,,0.00,Weather View 32 v70,2013-06-24 05:36:00,
2013-06-24 01:42:00,70.0,-35.1,30.11,SE,135,0.0,5.0,1,0.00,,,0.00,Weather View 32 v70,2013-06-24 05:42:00,
2013-06-24 01:47:00,70.0,-35.1,30.11,East,90,0.0,5.0,1,0.00,,,0.00,Weather View 32 v70,2013-06-24 05:47:00,
2013-06-24 01:52:00,70.0,-35.1,30.11,SSW,202,0.0,5.0,1,0.00,,,0.00,Weather View 32 v70,2013-06-24 05:52:00,
2013-06-24 01:57:00,70.0,-35.1,30.11,East,90,1.0,4.0,1,0.00,,,0.00,Weather View 32 v70,2013-06-24 05:57:00,
2013-06-24 02:02:00,70.0,-35.1,30.11,SSE,157,0.0,4.0,1,0.00,,,0.00,Weather View 32 v70,2013-06-24 06:02:00,
2013-06-24 02:07:00,70.0,-35.1,30.11,SSE,157,0.0,4.0,1,0.00,,,0.00,Weather View 32 v70,2013-06-24 06:07:00,
2013-06-24 02:12:00,70.0,-35.1,30.10,SSE,157,0.0,4.0,1,0.00,,,0.00,Weather View 32 v70,2013-06-24 06:12:00,
2013-06-24 02:17:00,70.0,-35.1,30.10,SSE,157,0.0,3.0,1,0.00,,,0.00,Weather View 32 v70,2013-06-24 06:17:00,
2013-06-24 02:22:00,70.0,-35.1,30.10,SSE,157,0.0,3.0,1,0.00,,,0.00,Weather View 32 v70,2013-06-24 06:22:00,
2013-06-24 02:27:00,70.0,-35.1,30.11,SSE,157,0.0,3.0,1,0.00,,,0.00,Weather View 32 v70,2013-06-24 06:27:00,
2013-06-24 02:32:00,70.0,-35.1,30.10,SSE,157,0.0,3.0,1,0.00,,,0.00,Weather View 32 v70,2013-06-24 06:32:00,
2013-06-24 02:37:00,70.0,-35.1,30.10,SSE,157,0.0,3.0,1,0.00,,,0.00,Weather View 32 v70,2013-06-24 06:37:00,
2013-06-24 02:42:00,70.0,-35.1,30.10,SSE,157,0.0,3.0,1,0.00,,,0.00,Weather View 32 v70,2013-06-24 06:42:00,
2013-06-24 02:47:00,70.0,-35.1,30.10,SSE,157,0.0,3.0,1,0.00,,,0.00,Weather View 32 v70,2013-06-24 06:47:00,
2013-06-24 02:52:00,70.0,-35.1,30.10,SSE,157,0.0,2.0,1,0.00,,,0.00,Weather View 32 v70,2013-06-24 06:52:00,
2013-06-24 02:57:00,70.0,-35.1,30.10,SSE,157,0.0,2.0,1,0.00,,,0.00,Weather View 32 v70,2013-06-24 06:57:00,
2013-06-24 03:02:00,70.0,-35.1,30.10,SSE,157,0.0,1.0,1,0.00,,,0.00,Weather View 32 v70,2013-06-24 07:02:00,
2013-06-24 03:07:00,70.0,-35.1,30.10,SSE,157,0.0,1.0,1,0.00,,,0.00,Weather View 32 v70,2013-06-24 07:07:00,
2013-06-24 03:12:00,70.0,-35.1,30.10,SSE,157,0.0,1.0,1,0.00,,,0.00,Weather View 32 v70,2013-06-24 07:12:00,
2013-06-24 03:18:00,70.0,-35.1,30.10,ESE,112,0.0,3.0,1,0.00,,,0.00,Weather View 32 v70,2013-06-24 07:18:00,
2013-06-24 03:23:00,70.0,-35.1,30.10,NW,315,0.0,3.0,1,0.00,,,0.00,Weather View 32 v70,2013-06-24 07:23:00,
2013-06-24 03:28:00,70.0,-35.1,30.10,SSW,202,0.0,3.0,1,0.00,,,0.00,Weather View 32 v70,2013-06-24 07:28:00,
2013-06-24 03:33:00,70.0,-35.1,30.10,SE,135,0.0,3.0,1,0.00,,,0.00,Weather View 32 v70,2013-06-24 07:33:00,
2013-06-24 03:38:00,70.0,-35.1,30.10,SE,135,0.0,3.0,1,0.00,,,0.00,Weather View 32 v70,2013-06-24 07:38:00,
2013-06-24 03:43:00,70.0,-35.1,30.09,SE,135,3.0,3.0,1,0.00,,,0.00,Weather View 32 v70,2013-06-24 07:43:00,
2013-06-24 03:48:00,70.0,-35.1,30.09,SE,135,1.0,3.0,1,0.00,,,0.00,Weather View 32 v70,2013-06-24 07:48:00,
2013-06-24 03:53:00,70.0,-35.1,30.09,SE,135,0.0,4.0,1,0.00,,,0.00,Weather View 32 v70,2013-06-24 07:53:00,
2013-06-24 03:58:00,70.0,-35.1,30.09,SE,135,0.0,4.0,1,0.00,,,0.00,Weather View 32 v70,2013-06-24 07:58:00,
2013-06-24 04:03:00,70.0,-35.1,30.09,ESE,112,0.0,4.0,1,0.00,,,0.00,Weather View 32 v70,2013-06-24 08:03:00,
2013-06-24 04:08:00,70.0,-35.1,30.09,ESE,112,0.0,4.0,1,0.00,,,0.00,Weather View 32 v70,2013-06-24 08:08:00,
2013-06-24 04:13:00,70.0,-35.1,30.09,ESE,112,0.0,4.0,1,0.00,,,0.00,Weather View 32 v70,2013-06-24 08:13:00,
2013-06-24 04:18:00,69.0,-35.7,30.08,ESE,112,0.0,4.0,1,0.00,,,0.00,Weather View 32 v70,2013-06-24 08:18:00,
2013-06-24 04:23:00,69.0,-35.7,30.08,ESE,112,0.0,4.0,1,0.00,,,0.00,Weather View 32 v70,2013-06-24 08:23:00,
2013-06-24 04:28:00,69.0,-35.7,30.08,ESE,112,0.0,4.0,1,0.00,,,0.00,Weather View 32 v70,2013-06-24 08:28:00,
2013-06-24 04:33:00,69.0,-35.7,30.08,ESE,112,0.0,4.0,1,0.00,,,0.00,Weather View 32 v70,2013-06-24 08:33:00,
2013-06-24 04:38:00,69.0,-35.7,30.08,ESE,112,0.0,4.0,1,0.00,,,0.00,Weather View 32 v70,2013-06-24 08:38:00,
2013-06-24 04:43:00,69.0,-35.7,30.08,ESE,112,0.0,4.0,1,0.00,,,0.00,Weather View 32 v70,2013-06-24 08:43:00,
2013-06-24 04:48:00,69.0,-35.7,30.08,ESE,112,0.0,4.0,1,0.00,,,0.00,Weather View 32 v70,2013-06-24 08:48:00,
2013-06-24 04:53:00,69.0,-35.7,30.08,ESE,112,0.0,3.0,1,0.00,,,0.00,Weather View 32 v70,2013-06-24 08:53:00,
2013-06-24 04:59:00,69.0,-35.7,30.08,ESE,112,0.0,3.0,1,0.00,,,0.00,Weather View 32 v70,2013-06-24 08:59:00,
2013-06-24 05:04:00,69.0,-35.7,30.08,ESE,112,0.0,2.0,1,0.00,,,0.00,Weather View 32 v70,2013-06-24 09:04:00,
2013-06-24 05:09:00,69.0,-35.7,30.08,ESE,112,0.0,1.0,1,0.00,,,0.00,Weather View 32 v70,2013-06-24 09:09:00,
2013-06-24 05:14:00,69.0,-35.7,30.08,ESE,112,0.0,1.0,1,0.00,,,0.00,Weather View 32 v70,2013-06-24 09:14:00,
2013-06-24 05:19:00,69.0,-35.7,30.07,ESE,112,0.0,1.0,1,0.00,,,0.00,Weather View 32 v70,2013-06-24 09:19:00,
2013-06-24 05:24:00,69.0,-35.7,30.08,ESE,112,0.0,2.0,1,0.00,,,0.00,Weather View 32 v70,2013-06-24 09:24:00,
2013-06-24 05:29:00,69.0,-35.7,30.07,ESE,112,1.0,2.0,1,0.00,,,0.00,Weather View 32 v70,2013-06-24 09:29:00,
2013-06-24 05:34:00,69.0,-35.7,30.07,ESE,112,0.0,2.0,1,0.00,,,0.00,Weather View 32 v70,2013-06-24 09:34:00,
2013-06-24 05:39:00,69.0,-35.7,30.07,ESE,112,0.0,2.0,1,0.00,,,0.00,Weather View 32 v70,2013-06-24 09:39:00,
2013-06-24 05:44:00,69.0,-35.7,30.07,ESE,112,0.0,2.0,1,0.00,,,0.00,Weather View 32 v70,2013-06-24 09:44:00,
2013-06-24 05:49:00,68.0,-36.3,30.07,ESE,112,0.0,2.0,1,0.00,,,0.00,Weather View 32 v70,2013-06-24 09:49:00,
2013-06-24 05:54:00,69.0,-35.7,30.07,East,90,0.0,2.0,1,0.00,,,0.00,Weather View 32 v70,2013-06-24 09:54:00,
2013-06-24 05:59:00,69.0,-35.7,30.07,South,180,0.0,4.0,1,0.00,,,0.00,Weather View 32 v70,2013-06-24 09:59:00,
2013-06-24 06:04:00,69.0,-35.7,30.07,SSW,202,0.0,4.0,1,0.00,,,0.00,Weather View 32 v70,2013-06-24 10:04:00,
2013-06-24 06:09:00,69.0,-35.7,30.07,SSE,157,0.0,4.0,1,0.00,,,0.00,Weather View 32 v70,2013-06-24 10:09:00,
2013-06-24 06:14:00,69.0,-35.7,30.07,ESE,112,0.0,4.0,1,0.00,,,0.00,Weather View 32 v70,2013-06-24 10:14:00,
2013-06-24 06:19:00,69.0,-35.7,30.07,SSE,157,0.0,4.0,1,0.00,,,0.00,Weather View 32 v70,2013-06-24 10:19:00,
2013-06-24 06:24:00,69.0,-35.7,30.08,SW,225,0.0,4.0,1,0.00,,,0.00,Weather View 32 v70,2013-06-24 10:24:00,
2013-06-24 06:29:00,69.0,-35.7,30.08,South,180,0.0,4.0,1,0.00,,,0.00,Weather View 32 v70,2013-06-24 10:29:00,
2013-06-24 06:34:00,69.0,-35.7,30.07,SE,135,0.0,4.0,1,0.00,,,0.00,Weather View 32 v70,2013-06-24 10:34:00,
2013-06-24 06:39:00,70.0,-35.1,30.08,SSW,202,0.0,4.0,1,0.00,,,0.00,Weather View 32 v70,2013-06-24 10:39:00,
2013-06-24 06:44:00,70.0,-35.1,30.08,ESE,112,1.0,4.0,1,0.00,,,0.00,Weather View 32 v70,2013-06-24 10:44:00,
2013-06-24 06:49:00,70.0,-35.1,30.08,ESE,112,0.0,4.0,1,0.00,,,0.00,Weather View 32 v70,2013-06-24 10:49:00,
2013-06-24 06:54:00,70.0,-35.1,30.08,SW,225,1.0,6.0,1,0.00,,,0.00,Weather View 32 v70,2013-06-24 10:54:00,
2013-06-24 06:59:00,71.0,-34.5,30.08,ESE,112,0.0,6.0,1,0.00,,,0.00,Weather View 32 v70,2013-06-24 10:59:00,
2013-06-24 07:04:00,71.0,-34.5,30.08,SSE,157,0.0,6.0,1,0.00,,,0.00,Weather View 32 v70,2013-06-24 11:04:00,
2013-06-24 07:09:00,71.0,-34.5,30.09,SW,225,0.0,6.0,1,0.00,,,0.00,Weather View 32 v70,2013-06-24 11:09:00,
2013-06-24 07:14:00,71.0,-34.5,30.09,SSW,202,0.0,6.0,1,0.00,,,0.00,Weather View 32 v70,2013-06-24 11:14:00,
2013-06-24 07:19:00,72.0,-33.9,30.09,ESE,112,0.0,6.0,1,0.00,,,0.00,Weather View 32 v70,2013-06-24 11:19:00,
2013-06-24 07:24:00,72.0,-33.9,30.08,SSW,202,2.0,6.0,1,0.00,,,0.00,Weather View 32 v70,2013-06-24 11:24:00,
2013-06-24 07:29:00,73.0,-33.3,30.09,WNW,292,2.0,6.0,1,0.00,,,0.00,Weather View 32 v70,2013-06-24 11:29:00,
2013-06-24 07:34:00,73.0,-33.3,30.09,West,270,0.0,6.0,1,0.00,,,0.00,Weather View 32 v70,2013-06-24 11:34:00,
2013-06-24 07:39:00,73.0,-33.3,30.09,South,180,0.0,6.0,1,0.00,,,0.00,Weather View 32 v70,2013-06-24 11:39:00,
2013-06-24 07:44:00,73.0,-33.3,30.09,SSW,202,0.0,6.0,1,0.00,,,0.00,Weather View 32 v70,2013-06-24 11:44:00,
2013-06-24 07:49:00,74.0,-32.7,30.09,WSW,247,1.0,6.0,1,0.00,,,0.00,Weather View 32 v70,2013-06-24 11:49:00,
2013-06-24 07:55:00,74.0,-32.7,30.09,West,270,2.0,5.0,1,0.00,,,0.00,Weather View 32 v70,2013-06-24 11:55:00,
2013-06-24 08:00:00,75.0,-32.1,30.08,WSW,247,0.0,6.0,1,0.00,,,0.00,Weather View 32 v70,2013-06-24 12:00:00,
2013-06-24 08:05:00,75.0,-32.1,30.08,SSW,202,0.0,6.0,1,0.00,,,0.00,Weather View 32 v70,2013-06-24 12:05:00,
2013-06-24 08:10:00,75.0,-32.1,30.09,East,90,0.0,6.0,1,0.00,,,0.00,Weather View 32 v70,2013-06-24 12:10:00,
2013-06-24 08:15:00,76.0,-31.5,30.09,SSW,202,4.0,6.0,1,0.00,,,0.00,Weather View 32 v70,2013-06-24 12:15:00,
2013-06-24 08:20:00,76.0,-31.5,30.09,SE,135,0.0,6.0,1,0.00,,,0.00,Weather View 32 v70,2013-06-24 12:20:00,
2013-06-24 08:25:00,77.0,-30.9,30.09,WNW,292,0.0,7.0,1,0.00,,,0.00,Weather View 32 v70,2013-06-24 12:25:00,
2013-06-24 08:30:00,77.0,-30.9,30.09,East,90,0.0,7.0,1,0.00,,,0.00,Weather View 32 v70,2013-06-24 12:30:00,
2013-06-24 08:35:00,77.0,-30.9,30.09,WSW,247,3.0,7.0,1,0.00,,,0.00,Weather View 32 v70,2013-06-24 12:35:00,
2013-06-24 08:40:00,78.0,-30.3,30.09,SE,135,0.0,7.0,1,0.00,,,0.00,Weather View 32 v70,2013-06-24 12:40:00,
2013-06-24 08:45:00,78.0,-30.3,30.09,SSE,157,0.0,7.0,1,0.00,,,0.00,Weather View 32 v70,2013-06-24 12:45:00,
2013-06-24 08:50:00,78.0,-30.3,30.09,WNW,292,1.0,7.0,1,0.00,,,0.00,Weather View 32 v70,2013-06-24 12:50:00,
2013-06-24 08:55:00,79.0,-29.7,30.10,WNW,292,2.0,7.0,1,0.00,,,0.00,Weather View 32 v70,2013-06-24 12:55:00,
2013-06-24 09:00:00,79.0,-29.7,30.10,East,90,1.0,7.0,1,0.00,,,0.00,Weather View 32 v70,2013-06-24 13:00:00,
2013-06-24 09:05:00,80.0,-7.8,30.10,West,270,1.0,7.0,3,0.00,,,0.00,Weather View 32 v70,2013-06-24 13:05:00,
2013-06-24 09:10:00,80.0,-29.1,30.10,SSW,202,0.0,7.0,1,0.00,,,0.00,Weather View 32 v70,2013-06-24 13:10:00,
2013-06-24 09:15:00,80.0,24.6,30.10,WNW,292,3.0,7.0,13,0.00,,,0.00,Weather View 32 v70,2013-06-24 13:15:00,
2013-06-24 09:20:00,81.0,25.4,30.09,WNW,292,4.0,7.0,13,0.00,,,0.00,Weather View 32 v70,2013-06-24 13:20:00,
2013-06-24 09:25:00,82.0,41.5,30.10,WNW,292,2.0,7.0,24,0.00,,,0.00,Weather View 32 v70,2013-06-24 13:25:00,
2013-06-24 09:30:00,83.0,38.9,30.10,WSW,247,0.0,7.0,21,0.00,,,0.00,Weather View 32 v70,2013-06-24 13:30:00,
2013-06-24 09:36:00,83.0,48.3,30.10,West,270,0.0,7.0,30,0.00,,,0.00,Weather View 32 v70,2013-06-24 13:36:00,
2013-06-24 09:41:00,84.0,50.9,30.10,WNW,292,3.0,7.0,32,0.00,,,0.00,Weather View 32 v70,2013-06-24 13:41:00,
2013-06-24 09:46:00,84.0,51.7,30.10,WNW,292,2.0,7.0,33,0.00,,,0.00,Weather View 32 v70,2013-06-24 13:46:00,
2013-06-24 09:51:00,84.0,53.3,30.10,WNW,292,1.0,7.0,35,0.00,,,0.00,Weather View 32 v70,2013-06-24 13:51:00,
2013-06-24 09:56:00,85.0,56.5,30.10,WNW,292,0.0,7.0,38,0.00,,,0.00,Weather View 32 v70,2013-06-24 13:56:00,
2013-06-24 10:01:00,86.0,58.1,30.10,WNW,292,2.0,7.0,39,0.00,,,0.00,Weather View 32 v70,2013-06-24 14:01:00,
2013-06-24 10:06:00,86.0,61.5,30.10,WSW,247,0.0,7.0,44,0.00,,,0.00,Weather View 32 v70,2013-06-24 14:06:00,
2013-06-24 10:11:00,87.0,58.2,30.11,WNW,292,2.0,7.0,38,0.00,,,0.00,Weather View 32 v70,2013-06-24 14:11:00,
2013-06-24 10:16:00,87.0,65.5,30.11,WNW,292,5.0,7.0,49,0.00,,,0.00,Weather View 32 v70,2013-06-24 14:16:00,
2013-06-24 10:21:00,87.0,65.5,30.11,WNW,292,4.0,7.0,49,0.00,,,0.00,Weather View 32 v70,2013-06-24 14:21:00,
2013-06-24 10:26:00,88.0,65.2,30.11,WNW,292,4.0,7.0,47,0.00,,,0.00,Weather View 32 v70,2013-06-24 14:26:00,
2013-06-24 10:31:00,88.0,68.1,30.11,East,90,3.0,7.0,52,0.00,,,0.00,Weather View 32 v70,2013-06-24 14:31:00,
2013-06-24 10:36:00,88.0,73.8,30.11,WNW,292,2.0,7.0,63,0.00,,,0.00,Weather View 32 v70,2013-06-24 14:36:00,
2013-06-24 10:41:00,89.0,77.0,30.10,WNW,292,5.0,7.0,68,0.00,,,0.00,Weather View 32 v70,2013-06-24 14:41:00,
2013-06-24 10:46:00,88.0,77.8,30.10,West,270,2.0,7.0,72,0.00,,,0.00,Weather View 32 v70,2013-06-24 14:46:00,
2013-06-24 10:51:00,89.0,76.6,30.10,ENE,67,0.0,8.0,67,0.00,,,0.00,Weather View 32 v70,2013-06-24 14:51:00,
2013-06-24 10:56:00,88.0,73.8,30.10,SW,225,1.0,8.0,63,0.00,,,0.00,Weather View 32 v70,2013-06-24 14:56:00,
2013-06-24 11:01:00,89.0,73.7,30.10,West,270,0.0,9.0,61,0.00,,,0.00,Weather View 32 v70,2013-06-24 15:01:00,
2013-06-24 11:06:00,89.0,72.7,30.10,NW,315,0.0,9.0,59,0.00,,,0.00,Weather View 32 v70,2013-06-24 15:06:00,
2013-06-24 11:11:00,89.0,72.2,30.10,ENE,67,2.0,9.0,58,0.00,,,0.00,Weather View 32 v70,2013-06-24 15:11:00,
2013-06-24 11:16:00,90.0,71.0,30.10,WNW,292,3.0,9.0,54,0.00,,,0.00,Weather View 32 v70,2013-06-24 15:16:00,
2013-06-24 11:21:00,90.0,72.1,30.10,WNW,292,3.0,9.0,56,0.00,,,0.00,Weather View 32 v70,2013-06-24 15:21:00,
2013-06-24 11:26:00,90.0,71.6,30.11,West,270,1.0,9.0,55,0.00,,,0.00,Weather View 32 v70,2013-06-24 15:26:00,
2013-06-24 11:31:00,90.0,71.0,30.11,ENE,67,4.0,9.0,54,0.00,,,0.00,Weather View 32 v70,2013-06-24 15:31:00,
2013-06-24 11:36:00,90.0,71.6,30.10,West,270,7.0,9.0,55,0.00,,,0.00,Weather View 32 v70,2013-06-24 15:36:00,
2013-06-24 11:41:00,90.0,71.0,30.10,West,270,2.0,9.0,54,0.00,,,0.00,Weather View 32 v70,2013-06-24 15:41:00,
2013-06-24 11:47:00,91.0,72.0,30.10,SE,135,0.0,9.0,54,0.00,,,0.00,Weather View 32 v70,2013-06-24 15:47:00,
2013-06-24 11:52:00,91.0,71.4,30.10,NE,45,5.0,9.0,53,0.00,,,0.00,Weather View 32 v70,2013-06-24 15:52:00,
2013-06-24 11:57:00,91.0,70.8,30.10,West,270,2.0,9.0,52,0.00,,,0.00,Weather View 32 v70,2013-06-24 15:57:00,
2013-06-24 12:02:00,92.0,71.8,30.10,ESE,112,0.0,9.0,52,0.00,,,0.00,Weather View 32 v70,2013-06-24 16:02:00,
2013-06-24 12:07:00,92.0,70.0,30.10,WNW,292,2.0,9.0,49,0.00,,,0.00,Weather View 32 v70,2013-06-24 16:07:00,
2013-06-24 12:12:00,91.0,70.8,30.10,WNW,292,5.0,8.0,52,0.00,,,0.00,Weather View 32 v70,2013-06-24 16:12:00,
2013-06-24 12:17:00,91.0,70.3,30.11,West,270,3.0,8.0,51,0.00,,,0.00,Weather View 32 v70,2013-06-24 16:17:00,
2013-06-24 12:22:00,91.0,71.4,30.10,NNE,22,1.0,8.0,53,0.00,,,0.00,Weather View 32 v70,2013-06-24 16:22:00,
2013-06-24 12:27:00,92.0,71.8,30.10,West,270,1.0,8.0,52,0.00,,,0.00,Weather View 32 v70,2013-06-24 16:27:00,
2013-06-24 12:32:00,91.0,70.3,30.10,NNE,22,6.0,8.0,51,0.00,,,0.00,Weather View 32 v70,2013-06-24 16:32:00,
2013-06-24 12:37:00,91.0,70.8,30.11,ENE,67,2.0,10.0,52,0.00,,,0.00,Weather View 32 v70,2013-06-24 16:37:00,
2013-06-24 12:42:00,92.0,70.0,30.10,SSE,157,1.0,10.0,49,0.00,,,0.00,Weather View 32 v70,2013-06-24 16:42:00,
2013-06-24 12:47:00,92.0,69.4,30.11,East,90,1.0,10.0,48,0.00,,,0.00,Weather View 32 v70,2013-06-24 16:47:00,
2013-06-24 12:52:00,92.0,70.0,30.10,West,270,0.0,10.0,49,0.00,,,0.00,Weather View 32 v70,2013-06-24 16:52:00,
2013-06-24 12:57:00,93.0,70.9,30.10,ESE,112,1.0,10.0,49,0.00,,,0.00,Weather View 32 v70,2013-06-24 16:57:00,
2013-06-24 13:02:00,93.0,69.7,30.10,WNW,292,3.0,10.0,47,0.00,,,0.00,Weather View 32 v70,2013-06-24 17:02:00,
2013-06-24 13:07:00,92.0,70.0,30.10,WNW,292,2.0,10.0,49,0.00,,,0.00,Weather View 32 v70,2013-06-24 17:07:00,
2013-06-24 13:13:00,92.0,71.2,30.10,West,270,1.0,10.0,51,0.00,,,0.00,Weather View 32 v70,2013-06-24 17:13:00,
2013-06-24 13:18:00,93.0,69.7,30.10,WNW,292,3.0,10.0,47,0.00,,,0.00,Weather View 32 v70,2013-06-24 17:18:00,
2013-06-24 13:23:00,93.0,70.3,30.10,West,270,0.0,10.0,48,0.00,,,0.00,Weather View 32 v70,2013-06-24 17:23:00,
2013-06-24 13:28:00,93.0,69.1,30.09,West,270,3.0,10.0,46,0.00,,,0.00,Weather View 32 v70,2013-06-24 17:28:00,
2013-06-24 13:33:00,93.0,69.7,30.09,West,270,3.0,10.0,47,0.00,,,0.00,Weather View 32 v70,2013-06-24 17:33:00,
2013-06-24 13:38:00,93.0,69.7,30.10,West,270,7.0,10.0,47,0.00,,,0.00,Weather View 32 v70,2013-06-24 17:38:00,
2013-06-24 13:43:00,92.0,70.0,30.10,WNW,292,0.0,10.0,49,0.00,,,0.00,Weather View 32 v70,2013-06-24 17:43:00,
2013-06-24 13:48:00,93.0,70.3,30.09,NNW,337,1.0,10.0,48,0.00,,,0.00,Weather View 32 v70,2013-06-24 17:48:00,
2013-06-24 13:53:00,93.0,70.3,30.09,WSW,247,1.0,10.0,48,0.00,,,0.00,Weather View 32 v70,2013-06-24 17:53:00,
2013-06-24 13:58:00,93.0,70.9,30.09,SSW,202,0.0,10.0,49,0.00,,,0.00,Weather View 32 v70,2013-06-24 17:58:00,
2013-06-24 14:03:00,93.0,70.3,30.09,West,270,2.0,10.0,48,0.00,,,0.00,Weather View 32 v70,2013-06-24 18:03:00,
2013-06-24 14:08:00,93.0,70.3,30.09,West,270,2.0,9.0,48,0.00,,,0.00,Weather View 32 v70,2013-06-24 18:08:00,
2013-06-24 14:13:00,92.0,70.6,30.09,West,270,4.0,9.0,50,0.00,,,0.00,Weather View 32 v70,2013-06-24 18:13:00,
2013-06-24 14:18:00,92.0,71.2,30.09,West,270,4.0,9.0,51,0.00,,,0.00,Weather View 32 v70,2013-06-24 18:18:00,
2013-06-24 14:23:00,91.0,70.3,30.08,WNW,292,5.0,9.0,51,0.00,,,0.00,Weather View 32 v70,2013-06-24 18:23:00,
2013-06-24 14:28:00,92.0,71.2,30.08,West,270,2.0,9.0,51,0.00,,,0.00,Weather View 32 v70,2013-06-24 18:28:00,
2013-06-24 14:33:00,92.0,70.0,30.08,WNW,292,1.0,9.0,49,0.00,,,0.00,Weather View 32 v70,2013-06-24 18:33:00,
2013-06-24 14:38:00,92.0,70.0,30.08,WNW,292,0.0,9.0,49,0.00,,,0.00,Weather View 32 v70,2013-06-24 18:38:00,
2013-06-24 14:43:00,92.0,70.0,30.07,SSE,157,1.0,9.0,49,0.00,,,0.00,Weather View 32 v70,2013-06-24 18:43:00,
2013-06-24 14:48:00,92.0,70.0,30.07,WNW,292,6.0,8.0,49,0.00,,,0.00,Weather View 32 v70,2013-06-24 18:48:00,
2013-06-24 14:53:00,92.0,70.0,30.07,WNW,292,0.0,8.0,49,0.00,,,0.00,Weather View 32 v70,2013-06-24 18:53:00,
2013-06-24 14:58:00,92.0,70.0,30.07,WNW,292,2.0,8.0,49,0.00,,,0.00,Weather View 32 v70,2013-06-24 18:58:00,
2013-06-24 15:03:00,92.0,70.0,30.07,WNW,292,4.0,8.0,49,0.00,,,0.00,Weather View 32 v70,2013-06-24 19:03:00,
2013-06-24 15:08:00,91.0,68.5,30.07,WNW,292,2.0,8.0,48,0.00,,,0.00,Weather View 32 v70,2013-06-24 19:08:00,
2013-06-24 15:13:00,91.0,69.1,30.07,West,270,4.0,8.0,49,0.00,,,0.00,Weather View 32 v70,2013-06-24 19:13:00,
2013-06-24 15:18:00,91.0,69.1,30.07,NNE,22,0.0,9.0,49,0.00,,,0.00,Weather View 32 v70,2013-06-24 19:18:00,
2013-06-24 15:23:00,91.0,69.7,30.06,WNW,292,1.0,9.0,50,0.00,,,0.00,Weather View 32 v70,2013-06-24 19:23:00,
2013-06-24 15:28:00,91.0,70.3,30.06,West,270,0.0,9.0,51,0.00,,,0.00,Weather View 32 v70,2013-06-24 19:28:00,
2013-06-24 15:33:00,91.0,70.8,30.06,WSW,247,0.0,9.0,52,0.00,,,0.00,Weather View 32 v70,2013-06-24 19:33:00,
2013-06-24 15:38:00,92.0,70.0,30.05,WNW,292,6.0,9.0,49,0.00,,,0.00,Weather View 32 v70,2013-06-24 19:38:00,
2013-06-24 15:44:00,91.0,70.3,30.05,SSW,202,1.0,9.0,51,0.00,,,0.00,Weather View 32 v70,2013-06-24 19:44:00,
2013-06-24 15:49:00,92.0,71.2,30.05,WNW,292,0.0,9.0,51,0.00,,,0.00,Weather View 32 v70,2013-06-24 19:49:00,
2013-06-24 15:54:00,92.0,70.6,30.05,WNW,292,5.0,9.0,50,0.00,,,0.00,Weather View 32 v70,2013-06-24 19:54:00,
2013-06-24 15:59:00,91.0,69.7,30.04,WNW,292,3.0,9.0,50,0.00,,,0.00,Weather View 32 v70,2013-06-24 19:59:00,
2013-06-24 16:04:00,91.0,70.8,30.04,WNW,292,0.0,9.0,52,0.00,,,0.00,Weather View 32 v70,2013-06-24 20:04:00,
2013-06-24 16:09:00,91.0,71.4,30.04,WNW,292,2.0,9.0,53,0.00,,,0.00,Weather View 32 v70,2013-06-24 20:09:00,
2013-06-24 16:14:00,91.0,71.4,30.04,WNW,292,3.0,9.0,53,0.00,,,0.00,Weather View 32 v70,2013-06-24 20:14:00,
2013-06-24 16:19:00,91.0,70.3,30.03,WNW,292,4.0,8.0,51,0.00,,,0.00,Weather View 32 v70,2013-06-24 20:19:00,
2013-06-24 16:24:00,91.0,72.0,30.03,NW,315,0.0,8.0,54,0.00,,,0.00,Weather View 32 v70,2013-06-24 20:24:00,
2013-06-24 16:29:00,91.0,72.0,30.03,WNW,292,0.0,7.0,54,0.00,,,0.00,Weather View 32 v70,2013-06-24 20:29:00,
2013-06-24 16:34:00,91.0,72.0,30.03,West,270,0.0,7.0,54,0.00,,,0.00,Weather View 32 v70,2013-06-24 20:34:00,
2013-06-24 16:39:00,90.0,72.1,30.03,South,180,0.0,7.0,56,0.00,,,0.00,Weather View 32 v70,2013-06-24 20:39:00,
2013-06-24 16:44:00,90.0,74.2,30.03,WSW,247,0.0,7.0,60,0.00,,,0.00,Weather View 32 v70,2013-06-24 20:44:00,
2013-06-24 16:49:00,90.0,74.7,30.03,West,270,2.0,7.0,61,0.00,,,0.00,Weather View 32 v70,2013-06-24 20:49:00,
2013-06-24 16:54:00,90.0,73.7,30.03,West,270,1.0,7.0,59,0.00,,,0.00,Weather View 32 v70,2013-06-24 20:54:00,
2013-06-24 16:59:00,90.0,73.7,30.03,SSW,202,0.0,6.0,59,0.00,,,0.00,Weather View 32 v70,2013-06-24 20:59:00,
2013-06-24 17:04:00,90.0,75.6,30.03,SSE,157,0.0,6.0,63,0.00,,,0.00,Weather View 32 v70,2013-06-24 21:04:00,
2013-06-24 17:09:00,90.0,74.7,30.03,SSE,157,2.0,6.0,61,0.00,,,0.00,Weather View 32 v70,2013-06-24 21:09:00,
2013-06-24 17:14:00,90.0,74.7,30.03,East,90,1.0,6.0,61,0.00,,,0.00,Weather View 32 v70,2013-06-24 21:14:00,
2013-06-24 17:19:00,90.0,74.7,30.03,SSE,157,0.0,6.0,61,0.00,,,0.00,Weather View 32 v70,2013-06-24 21:19:00,
2013-06-24 17:24:00,89.0,73.7,30.03,West,270,0.0,6.0,61,0.00,,,0.00,Weather View 32 v70,2013-06-24 21:24:00,
2013-06-24 17:29:00,88.0,73.3,30.03,North,360,0.0,6.0,62,0.00,,,0.00,Weather View 32 v70,2013-06-24 21:29:00,
2013-06-24 17:34:00,88.0,74.7,30.03,SW,225,0.0,6.0,65,0.00,,,0.00,Weather View 32 v70,2013-06-24 21:34:00,
2013-06-24 17:39:00,88.0,76.1,30.02,SSE,157,0.0,6.0,68,0.00,,,0.00,Weather View 32 v70,2013-06-24 21:39:00,
2013-06-24 17:44:00,88.0,76.1,30.02,South,180,0.0,6.0,68,0.00,,,0.00,Weather View 32 v70,2013-06-24 21:44:00,
2013-06-24 17:49:00,88.0,77.8,30.02,SE,135,1.0,6.0,72,0.00,,,0.00,Weather View 32 v70,2013-06-24 21:49:00,
2013-06-24 17:54:00,88.0,75.6,30.02,West,270,0.0,6.0,67,0.00,,,0.00,Weather View 32 v70,2013-06-24 21:54:00,
2013-06-24 18:00:00,88.0,76.9,30.02,South,180,0.0,6.0,70,0.00,,,0.00,Weather View 32 v70,2013-06-24 22:00:00,
2013-06-24 18:05:00,87.0,77.7,30.01,SSE,157,0.0,6.0,74,0.00,,,0.00,Weather View 32 v70,2013-06-24 22:05:00,
2013-06-24 18:10:00,87.0,76.8,30.01,SW,225,0.0,6.0,72,0.00,,,0.00,Weather View 32 v70,2013-06-24 22:10:00,
2013-06-24 18:15:00,87.0,77.3,30.01,SW,225,0.0,6.0,73,0.00,,,0.00,Weather View 32 v70,2013-06-24 22:15:00,
2013-06-24 18:20:00,87.0,77.3,30.01,SSE,157,0.0,6.0,73,0.00,,,0.00,Weather View 32 v70,2013-06-24 22:20:00,
2013-06-24 18:24:00,87.0,76.8,30.02,SSE,157,0.0,5.0,72,0.00,,,0.00,Weather View 32 v70,2013-06-24 22:24:00,
2013-06-24 18:30:00,87.0,78.5,30.02,SSE,157,0.0,5.0,76,0.00,,,0.00,Weather View 32 v70,2013-06-24 22:30:00,
2013-06-24 18:35:00,86.0,78.7,30.02,SSE,157,0.0,5.0,79,0.00,,,0.00,Weather View 32 v70,2013-06-24 22:35:00,
2013-06-24 18:40:00,86.0,79.1,30.02,SSE,157,0.0,5.0,80,0.00,,,0.00,Weather View 32 v70,2013-06-24 22:40:00,
2013-06-24 18:45:00,86.0,79.8,30.02,SSE,157,0.0,5.0,82,0.00,,,0.00,Weather View 32 v70,2013-06-24 22:45:00,
2013-06-24 18:50:00,86.0,79.8,30.02,SSE,157,0.0,5.0,82,0.00,,,0.00,Weather View 32 v70,2013-06-24 22:50:00,
2013-06-24 18:55:00,86.0,80.6,30.02,SSE,157,0.0,4.0,84,0.00,,,0.00,Weather View 32 v70,2013-06-24 22:55:00,
2013-06-24 19:00:00,85.0,80.3,30.02,SSE,157,0.0,3.0,86,0.00,,,0.00,Weather View 32 v70,2013-06-24 23:00:00,
2013-06-24 19:06:00,85.0,80.3,30.02,SSE,157,0.0,3.0,86,0.00,,,0.00,Weather View 32 v70,2013-06-24 23:06:00,
2013-06-24 19:11:00,85.0,81.0,30.01,SSE,157,0.0,3.0,88,0.00,,,0.00,Weather View 32 v70,2013-06-24 23:11:00,
2013-06-24 19:16:00,85.0,81.4,30.01,SSE,157,0.0,4.0,89,0.00,,,0.00,Weather View 32 v70,2013-06-24 23:16:00,
2013-06-24 19:21:00,85.0,81.4,30.01,SSE,157,0.0,4.0,89,0.00,,,0.00,Weather View 32 v70,2013-06-24 23:21:00,
2013-06-24 19:26:00,84.0,80.7,30.01,SSE,157,0.0,4.0,90,0.00,,,0.00,Weather View 32 v70,2013-06-24 23:26:00,
2013-06-24 19:31:00,84.0,80.4,30.02,ENE,67,3.0,5.0,89,0.00,,,0.00,Weather View 32 v70,2013-06-24 23:31:00,
2013-06-24 19:36:00,84.0,79.0,30.03,ENE,67,3.0,5.0,85,0.00,,,0.00,Weather View 32 v70,2013-06-24 23:36:00,
2013-06-24 19:41:00,83.0,79.4,30.03,WNW,292,1.0,5.0,89,0.00,,,0.00,Weather View 32 v70,2013-06-24 23:41:00,
2013-06-24 19:46:00,83.0,72.2,30.05,SE,135,1.0,8.0,70,0.00,,,0.00,Weather View 32 v70,2013-06-24 23:46:00,
2013-06-24 19:51:00,83.0,68.6,30.05,ENE,67,1.0,8.0,62,0.00,,,0.00,Weather View 32 v70,2013-06-24 23:51:00,
2013-06-24 19:56:00,82.0,67.6,30.05,NE,45,2.0,8.0,62,0.00,,,0.00,Weather View 32 v70,2013-06-24 23:56:00,
2013-06-24 20:01:00,82.0,66.2,30.05,East,90,1.0,8.0,59,0.00,,,0.00,Weather View 32 v70,2013-06-25 00:01:00,
2013-06-24 20:06:00,82.0,67.2,30.05,ENE,67,0.0,8.0,61,0.00,,,0.00,Weather View 32 v70,2013-06-25 00:06:00,
2013-06-24 20:11:00,81.0,64.3,30.07,NW,315,1.0,9.0,57,0.00,,,0.00,Weather View 32 v70,2013-06-25 00:11:00,
2013-06-24 20:16:00,80.0,66.7,30.07,NE,45,0.0,9.0,64,0.00,,,0.00,Weather View 32 v70,2013-06-25 00:16:00,
2013-06-24 20:21:00,79.0,67.5,30.07,East,90,4.0,9.0,68,0.00,,,0.00,Weather View 32 v70,2013-06-25 00:21:00,
2013-06-24 20:26:00,79.0,70.4,30.07,NW,315,0.0,9.0,75,0.00,,,0.00,Weather View 32 v70,2013-06-25 00:26:00,
2013-06-24 20:31:00,78.0,71.7,30.07,ENE,67,6.0,9.0,81,0.00,,,0.00,Weather View 32 v70,2013-06-25 00:31:00,
2013-06-24 20:36:00,77.0,71.4,30.07,East,90,2.0,9.0,83,0.00,,,0.00,Weather View 32 v70,2013-06-25 00:36:00,
2013-06-24 20:41:00,77.0,73.8,30.06,East,90,0.0,9.0,90,0.00,,,0.00,Weather View 32 v70,2013-06-25 00:41:00,
2013-06-24 20:46:00,76.0,44.7,30.06,East,90,0.0,9.0,33,0.00,,,0.00,Weather View 32 v70,2013-06-25 00:46:00,
2013-06-24 20:51:00,75.0,18.8,30.06,East,90,0.0,9.0,12,0.00,,,0.00,Weather View 32 v70,2013-06-25 00:51:00,
2013-06-24 20:56:00,75.0,6.6,30.06,East,90,1.0,9.0,7,0.00,,,0.00,Weather View 32 v70,2013-06-25 00:56:00,
2013-06-24 21:02:00,74.0,-11.8,30.05,East,90,0.0,9.0,3,0.00,,,0.00,Weather View 32 v70,2013-06-25 01:02:00,
2013-06-24 21:07:00,73.0,-33.3,30.06,East,90,0.0,9.0,1,0.00,,,0.00,Weather View 32 v70,2013-06-25 01:07:00,
2013-06-24 21:12:00,73.0,-33.3,30.06,East,90,0.0,7.0,1,0.00,,,0.00,Weather View 32 v70,2013-06-25 01:12:00,
2013-06-24 21:17:00,73.0,-33.3,30.07,East,90,0.0,6.0,1,0.00,,,0.00,Weather View 32 v70,2013-06-25 01:17:00,
2013-06-24 21:22:00,73.0,-33.3,30.07,ESE,112,0.0,6.0,1,0.00,,,0.00,Weather View 32 v70,2013-06-25 01:22:00,
2013-06-24 21:27:00,73.0,-33.3,30.07,ESE,112,1.0,6.0,1,0.00,,,0.00,Weather View 32 v70,2013-06-25 01:27:00,
2013-06-24 21:32:00,73.0,-33.3,30.08,South,180,0.0,6.0,1,0.00,,,0.00,Weather View 32 v70,2013-06-25 01:32:00,
2013-06-24 21:37:00,72.0,-33.9,30.08,South,180,0.0,3.0,1,0.00,,,0.00,Weather View 32 v70,2013-06-25 01:37:00,
2013-06-24 21:42:00,72.0,-33.9,30.08,South,180,0.0,3.0,1,0.00,,,0.00,Weather View 32 v70,2013-06-25 01:42:00,
2013-06-24 21:47:00,72.0,-33.9,30.08,South,180,0.0,3.0,1,0.00,,,0.00,Weather View 32 v70,2013-06-25 01:47:00,
2013-06-24 21:52:00,72.0,-33.9,30.07,South,180,0.0,3.0,1,0.00,,,0.00,Weather View 32 v70,2013-06-25 01:52:00,
2013-06-24 21:57:00,72.0,-33.9,30.07,South,180,0.0,3.0,1,0.00,,,0.00,Weather View 32 v70,2013-06-25 01:57:00,
2013-06-24 22:02:00,72.0,-33.9,30.07,South,180,0.0,3.0,1,0.00,,,0.00,Weather View 32 v70,2013-06-25 02:02:00,
2013-06-24 22:07:00,72.0,-33.9,30.07,South,180,0.0,3.0,1,0.00,,,0.00,Weather View 32 v70,2013-06-25 02:07:00,
2013-06-24 22:12:00,72.0,-33.9,30.06,South,180,0.0,3.0,1,0.00,,,0.00,Weather View 32 v70,2013-06-25 02:12:00,
2013-06-24 22:17:00,71.0,-34.5,30.06,South,180,0.0,3.0,1,0.00,,,0.00,Weather View 32 v70,2013-06-25 02:17:00,
2013-06-24 22:22:00,71.0,-34.5,30.05,South,180,0.0,3.0,1,0.00,,,0.00,Weather View 32 v70,2013-06-25 02:22:00,
2013-06-24 22:27:00,71.0,-34.5,30.05,South,180,0.0,3.0,1,0.00,,,0.00,Weather View 32 v70,2013-06-25 02:27:00,
2013-06-24 22:32:00,71.0,-34.5,30.05,South,180,0.0,1.0,1,0.00,,,0.00,Weather View 32 v70,2013-06-25 02:32:00,
2013-06-24 22:37:00,71.0,-34.5,30.05,South,180,0.0,1.0,1,0.00,,,0.00,Weather View 32 v70,2013-06-25 02:37:00,
2013-06-24 22:42:00,71.0,-34.5,30.05,South,180,0.0,1.0,1,0.00,,,0.00,Weather View 32 v70,2013-06-25 02:42:00,
2013-06-24 22:47:00,71.0,-34.5,30.05,South,180,0.0,0.0,1,0.00,,,0.00,Weather View 32 v70,2013-06-25 02:47:00,
2013-06-24 22:52:00,71.0,-34.5,30.05,South,180,0.0,0.0,1,0.00,,,0.00,Weather View 32 v70,2013-06-25 02:52:00,
2013-06-24 22:57:00,71.0,-34.5,30.04,South,180,0.0,1.0,1,0.00,,,0.00,Weather View 32 v70,2013-06-25 02:57:00,
2013-06-24 23:02:00,71.0,-34.5,30.04,South,180,0.0,1.0,1,0.00,,,0.00,Weather View 32 v70,2013-06-25 03:02:00,
2013-06-24 23:07:00,70.0,-35.1,30.03,South,180,0.0,1.0,1,0.00,,,0.00,Weather View 32 v70,2013-06-25 03:07:00,
2013-06-24 23:12:00,70.0,-35.1,30.03,South,180,0.0,1.0,1,0.00,,,0.00,Weather View 32 v70,2013-06-25 03:12:00,
2013-06-24 23:17:00,70.0,-35.1,30.03,South,180,0.0,1.0,1,0.00,,,0.00,Weather View 32 v70,2013-06-25 03:17:00,
2013-06-24 23:22:00,70.0,-35.1,30.03,South,180,0.0,2.0,1,0.00,,,0.00,Weather View 32 v70,2013-06-25 03:22:00,
2013-06-24 23:27:00,70.0,-35.1,30.03,South,180,0.0,2.0,1,0.00,,,0.00,Weather View 32 v70,2013-06-25 03:27:00,
2013-06-24 23:32:00,70.0,-35.1,30.03,South,180,0.0,4.0,1,0.00,,,0.00,Weather View 32 v70,2013-06-25 03:32:00,
2013-06-24 23:37:00,70.0,-35.1,30.03,South,180,0.0,4.0,1,0.00,,,0.00,Weather View 32 v70,2013-06-25 03:37:00,
2013-06-24 23:42:00,70.0,-35.1,30.02,South,180,0.0,4.0,1,0.00,,,0.00,Weather View 32 v70,2013-06-25 03:42:00,
2013-06-24 23:47:00,70.0,-35.1,30.03,South,180,0.0,4.0,1,0.00,,,0.00,Weather View 32 v70,2013-06-25 03:47:00,
2013-06-24 23:53:00,70.0,-35.1,30.02,South,180,0.0,4.0,1,0.00,,,0.00,Weather View 32 v70,2013-06-25 03:53:00,
2013-06-24 23:58:00,70.0,-35.1,30.02,South,180,0.0,4.0,1,0.00,,,0.00,Weather View 32 v70,2013-06-25 03:58:00,